SCOUT A R/B, 3137

Orbit data source: Space-Track

SCOUT A R/B, 3137 is space debris in LEO originally from a launch on Sat, 02 Mar 1968 UTC launched from the Air Force Western Test Range (AFWTR). Debris objects in space refer to the collection of defunct objects orbiting the Earth. Examples of debris include non-operational satellites, rocket bodies, and fragments generated from explosions, collisions, or faulty payload assembly.

Loading next visibility...
SCOUT A R/B details
Identifier
3137, 1968-012B
Orbit
LEO
Last TLE update20 hours ago
Origin
Flag of USNASA LaRC (US)
ManufacturerABL
MissionSpacecraft
Bus & MotorALTAIR, Unknown motor
Mass33 kg wet, 33 kg dry
Launch date (UTC)
1968-03-02 (57 years ago)
Launch vehicleUnknown
Launch site
Air Force Western Test Range (AFWTR)
Object type
Payload
Rocket body
Debris
Shape & HBRCyl, 1.5 m
Radar Cross Section0.687 m², Medium (>0.1 m² and < 1m²)

Expand to show TLE details & history

TLE from 20 hours ago
0 SCOUT A R/B
1 03137U 68012B   24355.76106454  .00000120  00000-0  17104-3 0  9992
2 03137  90.0263 272.1319 0074007 200.7922 159.0215 13.50205720795459
Epoch: 2024-12-20T18:15Z
Definitive object data (Epoch: 2024-12-20T18:15:55.976Z)
Latitude0.00001°
Longitude-91.67327°
Altitude1,125.996 km
Speed7.264 km/s
True Right ascension18h 08m 31s
True Declination0° 00' 00"
Sunlit
Object was in daylight at TLE epoch
Visualization TLE readout
Latitude38.12496°
Longitude88.3495°
Altitude1,046.053 km
Speed7.347 km/s
Apparent Right ascension04h 05m 13s
Apparent Declination3° 09' 44"
Sunlit
Object is in full shadow
Visualization observer readout
Local Sidereal Time13:34:16
Azimuth311.935° NW
Elevation-34.767°
Doppler factor1
Orbital elements
Apogee altitude1,123.662 km
Perigee altitude1,013.44 km
Semi-major axis7,446.688 km
Eccentricity0.0074007
Inclination90.0263°
RAAN272.1319°
Arg. of periapsis200.7922°
True anomaly159.32252°
Mean anomaly159.0215°
Eccentric anomaly159.17227°
Mean motion3.37752 °/min
BSTAR0.00017104
Orbital period106.59 mins
Loading maneuver chart data...
Loading historical data...
Loading historical data...
Loading historical data...
Loading historical data...
Loading historical data...
Loading historical data...
Loading historical data...

SCOUT A R/B Visibility forecast

Observer location: undefined°, undefined

Span
Click to sort rows by Start time (UTC) header in descending order
Start Az.
Max El. time (UTC)
Max El. Az.
Max El.
End time (UTC)
End Az.
8 mins2024-12-21 17:32:07.660Z110.813° ESE2024-12-21 17:36:07.660Z72.194° E18.763°2024-12-21 17:40:07.660Z33.341° NE
12 mins2024-12-21 19:16:07.660Z187.46° SSW2024-12-21 19:22:07.660Z284.169° WNW43.042°2024-12-21 19:28:07.660Z352.217° N
11 mins2024-12-22 06:27:07.660Z16.991° NNE2024-12-22 06:32:07.660Z91.566° ESE38.099°2024-12-22 06:38:07.660Z163.333° S
8 mins2024-12-22 08:14:07.660Z329° NNW2024-12-22 08:18:07.660Z284.098° WNW22.254°2024-12-22 08:22:07.660Z240.323° WSW
|